Location: Chippewa Lake
(41.0698°N, 81.9010°W)
Time: 02:02:49
(UTC+00:00)

NOSS 2-1 (D) - Pass Details

Date: 09 May 2021
Orbit: 431 x 1770 km, 63.3° (Epoch: 26 May)

Event Time Altitude Azimuth Distance (km) Brightness Sun altitude
Rises 07:35:43 0° 321° (NW) 3,094 7.3 -24.0°
Reaches altitude 10° 07:37:46 10° 317° (NW) 2,323 6.6 -23.8°
Maximum altitude 07:43:05 62° 238° (WSW) 1,088 4.4 -23.2°
Enters shadow 07:48:56 17° 163° (SSE) 2,657 6.4 -22.5°
Exits shadow 07:52:14 - 159° (SSE) 3,829 7.3 -22.2°
Sets 07:53:53 0° 158° (SSE) 4,418 7.6 -22.0°
